Temp
-22 -22 -19 -19 -20 -19 -18 -17 -17 -17 -17 -17 -16 -16 -16 -15 -15 -13 -14 -14 -13 -13 -12 -12 -12 -12 -12 -12 -12 -13 -13 -13 -13 -13 -13 -13 -14 -14 -15 -15 -16 -18 -19 -19 -20 -20 -21 -21 -21 -21 -21 -21 -21 -21
-21 -20 -19 -19 -19 -19 -17 -17 -17 -17 -17 -17 -16 -16 -16 -15 -14 -13 -14 -14 -13 -13 -13 -12 -12 -12 -12 -12 -13 -13 -13 -13 -14 -14 -14 -14 -14 -14 -15 -15 -16 -17 -17 -18 -19 -20 -20 -21 -21 -21 -21 -21 -21 -21
-20 -19 -18 -18 -19 -19 -18 -18 -17 -17 -17 -17 -16 -15 -15 -16 -13 -13 -14 -14 -13 -14 -13 -13 -12 -12 -12 -13 -13 -13 -13 -13 -14 -14 -14 -14 -15 -15 -15 -16 -16 -16 -16 -17 -18 -19 -19 -20 -20 -20 -21 -21 -21 -21
-20 -18 -18 -18 -19 -19 -18 -18 -17 -17 -17 -17 -16 -16 -16 -15 -14 -14 -14 -13 -13 -14 -13 -13 -13 -13 -13 -13 -13 -13 -13 -13 -14 -14 -14 -15 -15 -15 -15 -16 -16 -16 -17 -17 -17 -17 -18 -19 -19 -20 -21 -22 -22 -22
-19 -18 -18 -18 -18 -17 -18 -17 -17 -17 -17 -17 -16 -16 -15 -15 -15 -14 -14 -14 -14 -14 -14 -13 -13 -13 -13 -13 -13 -13 -13 -14 -14 -14 -15 -15 -15 -15 -16 -16 -16 -17 -17 -17 -18 -18 -19 -19 -20 -20 -21 -22 -22 -22
-19 -18 -17 -17 -17 -17 -18 -18 -18 -18 -17 -17 -16 -15 -16 -15 -15 -15 -14 -14 -14 -14 -15 -13 -13 -14 -14 -14 -14 -14 -14 -14 -14 -15 -15 -15 -15 -16 -16 -16 -17 -17 -17 -18 -18 -18 -19 -19 -20 -20 -21 -21 -22 -22
-19 -17 -17 -17 -17 -18 -18 -18 -18 -18 -17 -17 -16 -16 -16 -16 -16 -15 -15 -16 -15 -15 -15 -14 -14 -14 -14 -14 -14 -14 -15 -15 -15 -15 -15 -16 -16 -16 -16 -17 -17 -17 -18 -18 -19 -19 -19 -20 -20 -21 -21 -22 -22 -22
-19 -17 -17 -17 -17 -17 -18 -18 -19 -18 -16 -16 -16 -16 -16 -16 -15 -15 -16 -15 -15 -15 -15 -14 -14 -14 -14 -14 -15 -15 -15 -15 -15 -16 -16 -16 -17 -17 -17 -17 -18 -18 -18 -19 -19 -19 -20 -20 -20 -21 -22 -22 -22 -23
-19 -17 -16 -17 -17 -18 -18 -18 -19 -17 -16 -16 -17 -16 -16 -16 -16 -15 -15 -15 -15 -15 -14 -15 -14 -15 -14 -14 -15 -15 -15 -16 -16 -16 -16 -17 -17 -17 -17 -18 -18 -18 -19 -19 -19 -20 -20 -21 -21 -22 -22 -23 -23 -23
-19 -17 -16 -17 -17 -18 -19 -18 -18 -18 -16 -16 -16 -16 -16 -16 -15 -15 -15 -15 -15 -14 -15 -14 -14 -15 -15 -15 -15 -15 -15 -16 -16 -16 -16 -17 -17 -17 -18 -18 -18 -19 -19 -19 -20 -20 -20 -21 -21 -22 -22 -23 -23 -23
-19 -17 -16 -17 -17 -18 -18 -18 -19 -17 -16 -16 -16 -16 -16 -16 -14 -14 -14 -14 -14 -14 -14 -14 -14 -14 -15 -15 -15 -15 -16 -16 -16 -17 -16 -17 -18 -18 -18 -18 -19 -19 -19 -19 -20 -20 -21 -21 -22 -22 -22 -22 -23 -23
-19 -17 -17 -17 -17 -18 -19 -19 -18 -17 -16 -16 -16 -17 -16 -16 -15 -14 -14 -14 -14 -14 -14 -15 -15 -14 -15 -14 -15 -15 -16 -16 -16 -17 -17 -17 -17 -18 -18 -19 -19 -19 -19 -20 -20 -21 -21 -21 -22 -22 -23 -23 -23 -24
-20 -17 -17 -17 -17 -18 -18 -19 -18 -17 -17 -16 -16 -16 -16 -16 -16 -15 -14 -14 -14 -15 -15 -15 -15 -15 -14 -14 -15 -15 -16 -16 -16 -17 -17 -17 -18 -18 -18 -19 -19 -19 -20 -20 -20 -21 -21 -22 -22 -23 -23 -23 -24 -24
-21 -18 -17 -18 -17 -18 -18 -19 -18 -17 -17 -16 -16 -16 -16 -15 -15 -15 -15 -15 -15 -15 -14 -14 -14 -15 -15 -15 -15 -15 -16 -16 -16 -17 -17 -17 -18 -18 -18 -19 -19 -20 -20 -20 -21 -21 -22 -22 -22 -23 -23 -23 -24 -24
-20 -19 -18 -18 -17 -18 -19 -18 -17 -17 -17 -16 -16 -15 -15 -15 -15 -15 -15 -15 -16 -15 -15 -15 -15 -15 -15 -15 -15 -15 -16 -16 -17 -16 -17 -18 -18 -18 -18 -19 -20 -20 -20 -20 -21 -21 -22 -22 -23 -23 -24 -24 -24 -25
-22 -20 -18 -17 -18 -18 -18 -18 -17 -17 -17 -17 -16 -15 -14 -15 -15 -15 -16 -16 -15 -15 -15 -16 -16 -15 -15 -15 -15 -15 -16 -16 -16 -17 -17 -17 -18 -18 -19 -19 -20 -20 -20 -21 -21 -21 -22 -23 -23 -24 -24 -24 -25 -25
-22 -19 -18 -19 -19 -18 -19 -19 -18 -17 -17 -16 -16 -16 -15 -15 -15 -15 -16 -16 -16 -16 -16 -16 -16 -16 -15 -15 -15 -15 -16 -16 -16 -17 -17 -17 -18 -18 -19 -19 -20 -20 -20 -21 -21 -22 -22 -23 -23 -24 -24 -25 -25 -26
-22 -20 -20 -19 -18 -19 -19 -19 -18 -17 -16 -16 -16 -16 -16 -16 -16 -16 -16 -16 -16 -16 -16 -16 -16 -16 -15 -15 -15 -15 -16 -16 -16 -17 -17 -18 -18 -18 -19 -19 -20 -20 -21 -21 -22 -22 -23 -23 -24 -24 -25 -25 -26 -26
-23 -21 -20 -18 -18 -18 -19 -19 -17 -16 -16 -17 -17 -16 -16 -16 -16 -16 -16 -16 -16 -16 -16 -16 -16 -16 -16 -15 -15 -16 -16 -16 -16 -17 -18 -18 -18 -18 -19 -19 -20 -20 -21 -21 -22 -23 -23 -24 -24 -25 -25 -26 -26 -26
-23 -22 -19 -18 -18 -19 -19 -18 -17 -17 -17 -17 -17 -16 -16 -16 -16 -16 -16 -16 -16 -17 -17 -17 -17 -16 -16 -16 -17 -16 -16 -16 -17 -18 -18 -18 -18 -19 -19 -19 -20 -20 -21 -22 -23 -23 -24 -24 -24 -25 -26 -26 -26 -27
-23 -23 -22 -20 -19 -19 -19 -17 -17 -16 -17 -17 -17 -17 -17 -17 -17 -17 -17 -17 -17 -17 -17 -17 -17 -17 -17 -17 -16 -16 -17 -17 -18 -19 -19 -19 -19 -19 -19 -20 -20 -20 -21 -22 -23 -24 -24 -25 -25 -26 -26 -27 -27 -27
-22 -22 -21 -20 -19 -19 -18 -17 -17 -17 -17 -17 -18 -17 -17 -17 -17 -17 -17 -18 -17 -17 -17 -17 -18 -18 -17 -17 -17 -17 -17 -18 -19 -19 -19 -19 -19 -19 -20 -20 -21 -21 -22 -23 -24 -24 -25 -25 -26 -26 -27 -27 -27 -27
-22 -22 -21 -20 -20 -19 -18 -18 -18 -17 -17 -18 -18 -18 -17 -17 -17 -17 -18 -18 -18 -18 -18 -18 -18 -18 -17 -17 -17 -18 -18 -19 -19 -19 -20 -20 -20 -20 -20 -20 -21 -22 -23 -23 -24 -24 -25 -26 -26 -27 -27 -27 -28 -28
-22 -21 -21 -21 -20 -19 -18 -18 -18 -17 -17 -17 -17 -17 -17 -17 -18 -18 -18 -18 -19 -19 -19 -18 -18 -18 -18 -18 -18 -18 -19 -19 -20 -20 -20 -20 -20 -20 -20 -21 -22 -22 -23 -24 -24 -25 -25 -26 -27 -27 -28 -28 -28 -29
-23 -23 -22 -20 -20 -18 -18 -18 -17 -17 -17 -18 -18 -18 -18 -19 -19 -19 -19 -19 -19 -19 -19 -19 -18 -18 -18 -19 -19 -20 -20 -20 -20 -20 -20 -20 -21 -21 -21 -21 -22 -23 -24 -24 -25 -25 -26 -27 -27 -28 -28 -29 -29 -30
-24 -22 -21 -19 -19 -18 -18 -18 -17 -17 -18 -18 -18 -19 -19 -19 -19 -19 -20 -20 -20 -20 -19 -19 -19 -19 -20 -20 -20 -21 -21 -21 -21 -21 -21 -21 -21 -21 -22 -22 -23 -23 -24 -24 -25 -26 -27 -27 -27 -28 -29 -30 -31 -32
-22 -20 -19 -18 -18 -17 -18 -18 -18 -18 -18 -19 -19 -20 -20 -19 -20 -20 -20 -21 -20 -20 -20 -20 -20 -20 -20 -21 -21 -21 -21 -21 -21 -21 -21 -21 -21 -22 -22 -23 -23 -24 -25 -25 -26 -26 -27 -27 -28 -29 -30 -32 -32 -32
-21 -20 -20 -19 -18 -19 -18 -18 -18 -18 -19 -20 -20 -20 -20 -20 -21 -21 -21 -21 -21 -20 -20 -21 -21 -22 -22 -22 -21 -21 -21 -21 -21 -22 -22 -22 -22 -22 -23 -23 -24 -24 -25 -26 -26 -27 -28 -28 -29 -31 -32 -32 -32 -32
-20 -20 -20 -20 -20 -19 -19 -19 -19 -20 -20 -21 -21 -21 -21 -21 -22 -22 -22 -21 -21 -21 -22 -22 -23 -22 -22 -22 -22 -22 -22 -22 -22 -22 -22 -22 -23 -23 -23 -24 -24 -25 -26 -26 -27 -28 -29 -30 -31 -31 -31 -31 -32 -32
-22 -21 -21 -21 -21 -20 -20 -20 -21 -22 -22 -22 -22 -22 -22 -22 -22 -22 -22 -22 -22 -23 -23 -23 -22 -22 -22 -22 -22 -22 -22 -22 -22 -23 -23 -24 -24 -24 -24 -25 -26 -26 -26 -27 -29 -30 -30 -30 -30 -30 -30 -30 -31 -31
-23 -23 -23 -23 -22 -22 -22 -22 -23 -23 -23 -23 -23 -23 -23 -22 -23 -23 -23 -23 -24 -23 -23 -23 -23 -23 -23 -23 -22 -23 -23 -23 -23 -23 -24 -24 -24 -25 -25 -26 -26 -27 -28 -30 -30 -30 -31 -31 -31 -31 -31 -31 -31 -30
-24 -23 -23 -23 -23 -23 -23 -23 -23 -23 -23 -23 -23 -23 -23 -23 -24 -24 -24 -24 -23 -23 -23 -23 -23 -23 -23 -23 -23 -24 -24 -24 -24 -24 -24 -25 -25 -25 -26 -27 -28 -29 -29 -30 -30 -31 -32 -32 -32 -32 -32 -32 -32 -31
-25 -24 -24 -24 -24 -24 -24 -24 -24 -24 -24 -24 -24 -24 -24 -24 -24 -24 -24 -24 -24 -23 -23 -23 -23 -24 -24 -24 -24 -24 -24 -24 -25 -25 -25 -25 -26 -27 -28 -28 -28 -28 -28 -29 -30 -31 -32 -32 -32 -32 -32 -32 -32 -32
Height
5447 5440 5440 5451 5457 5465 5471 5479 5490 5500 5510 5521 5529 5536 5543 5551 5560 5567 5577 5586 5596 5603 5610 5615 5620 5625 5628 5631 5633 5634 5634 5633 5632 5629 5627 5626 5622 5621 5619 5615 5614 5612 5611 5611 5612 5612 5615 5616 5616 5618 5618 5618 5617 5616
5448 5446 5449 5460 5467 5470 5479 5488 5498 5508 5516 5523 5532 5538 5544 5551 5560 5567 5577 5586 5595 5602 5608 5613 5618 5623 5626 5629 5631 5632 5633 5633 5632 5631 5629 5627 5624 5621 5619 5617 5615 5613 5611 5610 5609 5610 5609 5609 5608 5608 5609 5609 5609 5609
5450 5449 5456 5466 5474 5481 5486 5495 5501 5510 5518 5526 5533 5541 5547 5554 5560 5568 5576 5584 5593 5600 5606 5612 5616 5621 5624 5627 5629 5631 5632 5632 5631 5630 5629 5627 5626 5622 5619 5617 5615 5612 5611 5609 5607 5605 5604 5601 5600 5600 5600 5600 5600 5599
5450 5451 5458 5467 5477 5484 5490 5499 5504 5510 5521 5527 5535 5542 5549 5555 5561 5568 5575 5582 5592 5599 5605 5611 5615 5619 5622 5625 5627 5629 5630 5630 5630 5629 5628 5626 5625 5623 5619 5618 5615 5613 5610 5608 5606 5604 5601 5598 5596 5595 5593 5591 5591 5590
5449 5451 5459 5471 5479 5489 5498 5500 5508 5514 5522 5529 5534 5542 5549 5554 5560 5568 5574 5581 5589 5598 5603 5609 5613 5616 5619 5622 5625 5627 5628 5628 5628 5628 5627 5624 5622 5621 5619 5616 5613 5611 5608 5605 5601 5599 5597 5595 5592 5590 5587 5585 5582 5580
5448 5452 5461 5472 5480 5490 5498 5503 5508 5514 5522 5529 5536 5543 5550 5555 5561 5568 5574 5582 5588 5594 5602 5607 5610 5614 5617 5620 5623 5624 5625 5626 5626 5626 5625 5623 5620 5619 5617 5615 5613 5609 5606 5603 5600 5595 5592 5590 5587 5584 5582 5580 5576 5573
5448 5452 5461 5472 5480 5490 5497 5504 5509 5515 5523 5529 5537 5544 5548 5553 5560 5568 5575 5581 5587 5593 5599 5603 5608 5611 5615 5618 5620 5621 5622 5623 5623 5623 5622 5621 5619 5618 5615 5613 5611 5608 5604 5601 5597 5594 5590 5586 5583 5579 5576 5574 5570 5566
5444 5451 5460 5471 5479 5490 5497 5504 5510 5516 5525 5532 5537 5542 5547 5553 5560 5565 5571 5578 5585 5591 5597 5602 5605 5609 5612 5614 5617 5618 5619 5619 5619 5619 5619 5617 5616 5614 5612 5610 5608 5605 5601 5597 5594 5591 5586 5583 5578 5575 5571 5567 5562 5558
5441 5448 5459 5470 5478 5490 5497 5502 5510 5516 5525 5531 5537 5540 5544 5552 5560 5565 5571 5576 5583 5590 5594 5599 5602 5605 5608 5611 5613 5615 5616 5616 5616 5615 5615 5614 5611 5610 5608 5606 5604 5601 5598 5594 5590 5586 5581 5577 5574 5570 5565 5561 5556 5551
5435 5444 5454 5466 5477 5488 5495 5504 5509 5517 5525 5532 5537 5540 5544 5551 5558 5563 5570 5575 5581 5586 5591 5595 5598 5602 5605 5607 5609 5611 5612 5612 5611 5612 5610 5609 5606 5605 5603 5601 5598 5595 5592 5589 5585 5580 5576 5572 5568 5563 5558 5554 5548 5544
5429 5438 5450 5464 5474 5486 5495 5502 5508 5516 5526 5533 5537 5540 5545 5551 5556 5562 5568 5574 5580 5585 5589 5592 5594 5598 5601 5603 5605 5606 5607 5608 5607 5606 5605 5603 5601 5599 5597 5595 5592 5589 5586 5583 5579 5574 5570 5565 5561 5556 5551 5546 5541 5536
5423 5433 5445 5459 5473 5482 5492 5501 5508 5517 5525 5533 5538 5542 5546 5550 5556 5561 5566 5573 5577 5582 5586 5588 5591 5595 5598 5600 5601 5601 5602 5603 5602 5601 5599 5597 5596 5594 5591 5589 5586 5583 5579 5576 5572 5568 5563 5558 5553 5548 5543 5538 5533 5528
5416 5426 5440 5456 5469 5480 5492 5498 5504 5512 5520 5528 5534 5539 5543 5549 5553 5561 5566 5572 5574 5579 5583 5586 5589 5591 5593 5595 5596 5596 5597 5598 5596 5596 5594 5592 5589 5587 5585 5582 5580 5576 5572 5568 5564 5559 5555 5550 5545 5540 5535 5530 5525 5519
5410 5420 5434 5449 5464 5476 5486 5494 5500 5507 5516 5524 5532 5537 5542 5547 5552 5559 5564 5568 5572 5575 5579 5583 5585 5587 5588 5590 5591 5591 5592 5592 5591 5590 5588 5586 5583 5581 5578 5575 5572 5568 5563 5560 5556 5551 5546 5541 5536 5531 5526 5521 5517 5512
5404 5414 5428 5443 5459 5469 5481 5487 5494 5504 5512 5520 5526 5532 5538 5545 5548 5554 5560 5565 5569 5573 5577 5579 5581 5583 5584 5585 5586 5586 5585 5585 5583 5582 5580 5577 5575 5573 5571 5568 5565 5560 5555 5551 5546 5542 5537 5532 5527 5522 5516 5512 5507 5502
5396 5403 5420 5437 5451 5465 5473 5481 5490 5499 5507 5515 5521 5527 5533 5540 5545 5550 5556 5560 5565 5570 5573 5575 5577 5578 5579 5580 5581 5580 5579 5577 5576 5573 5571 5569 5567 5565 5563 5559 5555 5551 5546 5541 5537 5533 5528 5523 5517 5512 5506 5502 5496 5492
5387 5400 5416 5428 5442 5456 5467 5477 5485 5493 5500 5507 5516 5523 5528 5535 5540 5546 5551 5556 5561 5565 5568 5570 5571 5572 5574 5574 5575 5574 5573 5571 5568 5565 5563 5561 5559 5557 5553 5549 5546 5542 5538 5532 5527 5523 5518 5513 5508 5502 5496 5491 5487 5482
5386 5398 5409 5420 5437 5448 5459 5470 5478 5488 5497 5505 5513 5519 5523 5530 5536 5541 5546 5551 5556 5559 5562 5565 5566 5567 5568 5568 5567 5567 5564 5563 5560 5558 5556 5554 5552 5548 5544 5540 5536 5533 5528 5522 5517 5512 5507 5502 5496 5491 5486 5481 5476 5471
5379 5391 5404 5423 5438 5446 5456 5465 5475 5486 5495 5502 5508 5515 5518 5525 5531 5536 5540 5545 5549 5552 5555 5558 5560 5561 5560 5561 5561 5559 5557 5555 5553 5550 5548 5545 5542 5539 5535 5531 5527 5522 5517 5511 5506 5501 5496 5490 5485 5480 5474 5469 5465 5461
5374 5389 5404 5418 5429 5440 5448 5457 5468 5476 5486 5496 5503 5509 5515 5520 5525 5530 5535 5539 5542 5545 5549 5551 5551 5553 5554 5554 5553 5552 5549 5546 5544 5542 5539 5536 5533 5530 5526 5521 5516 5511 5506 5501 5496 5490 5484 5478 5473 5467 5462 5458 5453 5448
5368 5383 5395 5405 5418 5432 5441 5451 5462 5471 5481 5489 5496 5503 5508 5513 5519 5524 5529 5533 5536 5539 5541 5543 5544 5546 5546 5545 5544 5543 5540 5537 5536 5534 5531 5527 5524 5521 5516 5511 5506 5501 5495 5489 5484 5477 5472 5466 5460 5455 5451 5446 5441 5436
5358 5370 5387 5399 5415 5427 5436 5447 5457 5468 5477 5483 5490 5495 5501 5506 5512 5518 5522 5525 5527 5530 5533 5536 5538 5538 5537 5537 5536 5534 5531 5529 5527 5525 5522 5519 5515 5511 5506 5500 5495 5489 5483 5477 5472 5466 5459 5453 5448 5442 5438 5433 5428 5422
5363 5375 5388 5400 5409 5420 5430 5440 5449 5460 5470 5478 5484 5489 5494 5500 5505 5511 5514 5517 5519 5523 5526 5528 5529 5529 5529 5528 5526 5524 5522 5520 5518 5515 5512 5508 5504 5499 5494 5489 5483 5476 5469 5463 5459 5453 5446 5439 5435 5429 5424 5419 5414 5408
5364 5374 5383 5392 5402 5412 5423 5433 5444 5457 5465 5472 5477 5483 5489 5495 5499 5501 5506 5509 5512 5515 5518 5519 5520 5520 5519 5518 5516 5514 5512 5510 5507 5504 5501 5497 5492 5487 5482 5476 5469 5463 5457 5451 5444 5437 5431 5425 5419 5414 5409 5403 5398 5393
5355 5363 5373 5383 5395 5409 5419 5430 5441 5452 5460 5467 5473 5478 5483 5487 5490 5494 5498 5501 5504 5507 5510 5511 5510 5510 5508 5507 5506 5504 5501 5499 5496 5494 5490 5485 5480 5474 5468 5463 5457 5450 5443 5437 5430 5422 5415 5410 5404 5399 5393 5388 5382 5377
5350 5358 5372 5385 5395 5405 5417 5427 5438 5448 5455 5461 5467 5471 5474 5478 5482 5487 5490 5494 5497 5499 5501 5501 5500 5499 5498 5497 5495 5493 5491 5488 5485 5482 5477 5472 5467 5461 5455 5448 5441 5435 5428 5421 5414 5407 5399 5393 5388 5383 5377 5371 5367 5364
5352 5367 5379 5388 5398 5408 5418 5426 5435 5442 5447 5453 5459 5464 5467 5471 5475 5479 5482 5485 5489 5491 5492 5491 5491 5490 5489 5487 5485 5483 5480 5477 5473 5470 5465 5460 5454 5448 5442 5435 5428 5420 5412 5404 5397 5391 5384 5378 5371 5364 5359 5355 5352 5351
5362 5372 5380 5390 5397 5406 5415 5422 5428 5434 5441 5447 5452 5454 5459 5463 5468 5470 5474 5477 5480 5481 5481 5481 5480 5480 5479 5477 5475 5472 5469 5465 5461 5457 5452 5446 5440 5434 5427 5420 5413 5405 5396 5388 5380 5372 5365 5359 5354 5348 5344 5341 5338 5334
5362 5370 5378 5386 5396 5403 5409 5416 5424 5430 5436 5439 5444 5448 5452 5455 5459 5463 5466 5468 5470 5470 5470 5470 5470 5470 5468 5467 5464 5461 5457 5453 5449 5443 5437 5431 5424 5418 5410 5402 5394 5386 5379 5371 5360 5353 5348 5343 5338 5335 5331 5328 5325 5322
5362 5369 5377 5383 5391 5397 5406 5413 5419 5424 5429 5433 5437 5440 5444 5448 5451 5454 5456 5458 5459 5460 5461 5461 5460 5459 5457 5455 5452 5449 5445 5441 5435 5430 5424 5417 5410 5402 5393 5385 5376 5366 5357 5348 5341 5335 5329 5325 5322 5318 5315 5313 5311 5309
5361 5367 5374 5380 5387 5393 5399 5406 5411 5416 5421 5426 5430 5434 5437 5441 5443 5446 5448 5449 5450 5451 5451 5450 5449 5447 5446 5443 5440 5436 5432 5427 5421 5416 5409 5402 5394 5385 5376 5367 5358 5348 5338 5329 5323 5317 5311 5306 5302 5298 5295 5293 5291 5291
5361 5365 5371 5378 5384 5389 5395 5400 5405 5410 5415 5419 5423 5427 5430 5432 5435 5438 5439 5440 5440 5440 5439 5438 5437 5436 5434 5431 5427 5423 5418 5413 5407 5401 5393 5386 5377 5367 5358 5348 5338 5328 5319 5310 5302 5295 5288 5283 5279 5275 5273 5272 5270 5269
5359 5364 5369 5374 5380 5386 5391 5396 5399 5404 5408 5412 5415 5419 5422 5424 5427 5429 5429 5430 5430 5429 5428 5427 5426 5423 5420 5417 5413 5409 5404 5399 5393 5386 5378 5370 5360 5352 5344 5335 5323 5312 5301 5292 5284 5277 5272 5266 5260 5255 5252 5252 5252 5252
Wind_Speed
57 20 15 52 68 74 61 57 51 50 42 40 40 35 36 32 43 51 41 34 32 31 28 24 23 22 17 12 9 8 9 13 15 18 19 21 26 28 30 30 29 20 10 2 8 17 20 23 26 26 26 26 27 26
43 5 35 61 65 68 58 53 37 40 43 36 35 37 37 32 50 45 43 35 33 31 29 25 23 22 19 14 9 5 5 7 10 13 16 17 20 22 24 26 26 22 25 19 12 7 9 18 23 26 27 29 31 33
30 13 46 56 62 67 54 43 38 38 33 35 31 29 26 33 46 47 44 40 36 33 30 26 23 21 18 15 12 7 3 3 6 9 12 14 15 17 19 20 22 23 23 23 22 19 13 8 11 18 25 27 27 29
22 29 49 54 61 62 56 44 42 38 41 34 38 32 23 21 28 40 42 41 35 32 29 27 24 21 19 16 12 9 5 1 3 5 7 9 13 14 16 16 18 19 19 19 20 21 19 18 15 11 16 24 29 31
14 36 49 59 71 62 56 50 43 38 35 36 36 30 20 22 31 40 40 37 36 34 32 28 26 22 18 16 13 11 8 5 4 5 7 8 9 11 13 15 17 18 19 20 20 21 19 19 18 16 15 16 20 26
10 41 53 71 73 64 45 44 39 37 33 33 33 31 18 25 38 41 38 38 34 32 29 28 26 22 18 15 14 11 10 8 6 5 7 8 9 9 12 13 14 16 18 19 20 21 21 20 19 19 20 18 17 18
13 48 61 72 72 59 49 39 34 25 31 32 27 22 20 27 42 42 38 36 35 34 30 29 25 22 18 15 14 12 11 9 8 8 8 9 10 10 12 12 14 15 16 17 18 19 19 20 21 21 23 24 25 26
16 54 65 72 68 59 45 40 33 31 33 29 23 21 20 27 40 47 45 38 33 31 28 26 25 21 19 16 14 13 10 10 9 9 10 11 11 12 13 14 14 15 17 18 18 19 20 21 23 25 26 28 29 30
23 58 72 75 70 58 52 44 38 38 36 26 22 20 25 34 43 43 39 36 34 31 29 26 23 21 19 16 14 12 11 10 10 10 11 12 13 14 15 17 17 18 20 21 22 23 23 24 25 27 29 31 30 31
28 63 71 71 72 56 50 47 39 41 39 29 24 17 22 38 46 41 39 37 33 29 28 25 22 17 17 16 15 14 12 11 13 14 13 14 16 16 17 18 19 20 22 24 25 26 26 26 27 29 31 31 31 31
33 61 69 71 72 58 55 44 40 44 41 32 25 19 19 32 45 40 38 35 32 29 25 21 18 17 17 17 16 14 12 11 14 16 14 16 19 18 18 21 22 23 25 26 28 30 29 29 30 31 33 34 34 33
40 62 71 74 70 64 54 47 45 44 40 34 31 24 21 31 40 41 37 32 28 26 24 22 19 18 17 16 14 15 15 12 14 16 17 19 21 20 21 22 23 24 26 28 30 32 32 32 32 33 34 35 35 35
47 67 73 78 73 61 56 46 46 44 38 33 33 30 23 30 41 38 31 27 26 24 22 21 19 17 16 15 16 18 16 13 17 16 19 20 20 21 23 24 25 26 27 30 32 34 35 35 34 35 36 37 37 37
53 72 75 78 75 65 55 50 53 49 41 35 34 31 32 28 30 37 32 31 29 28 26 22 19 17 16 15 14 15 14 15 16 18 21 20 22 24 25 25 25 26 29 32 35 36 37 37 37 38 38 38 38 38
60 73 76 78 80 58 52 54 56 50 45 40 36 34 30 27 27 41 34 30 30 25 22 20 18 16 15 15 14 15 16 16 18 20 21 22 24 25 26 26 26 29 31 34 37 39 39 40 40 39 39 39 39 39
68 74 79 86 79 61 55 57 57 53 48 41 38 37 31 29 29 39 35 32 30 28 21 19 20 16 14 12 12 15 17 20 23 25 25 26 26 25 25 26 29 32 34 37 39 40 41 41 41 40 41 41 40 40
74 77 82 83 77 71 57 49 51 55 50 43 39 36 33 32 35 40 36 33 33 27 21 22 21 17 15 17 16 19 22 25 27 27 28 28 27 27 28 29 30 33 35 38 40 42 43 43 43 42 42 42 41 40
74 77 76 84 72 63 56 52 59 57 49 41 38 38 36 33 34 33 38 37 32 28 26 25 22 20 19 20 22 25 26 27 30 30 30 29 27 28 30 31 32 34 37 40 42 44 44 44 44 45 44 43 42 41
74 75 82 89 77 68 64 59 63 56 47 41 39 39 36 36 35 34 35 35 33 34 31 25 22 19 21 20 22 25 27 30 30 30 29 29 29 30 31 31 34 37 40 43 45 46 45 46 46 47 45 43 43 41
71 72 81 85 82 66 59 64 66 62 53 43 39 41 38 35 33 35 35 35 33 32 29 24 22 20 17 19 23 27 30 30 30 30 31 31 29 30 32 34 37 40 43 46 46 46 46 48 49 47 46 45 44 44
74 69 69 76 78 68 63 68 68 64 55 46 43 44 41 36 33 33 30 27 28 28 30 27 22 18 19 23 25 28 31 31 30 29 28 30 31 31 35 37 41 44 46 48 47 49 50 50 50 48 47 46 46 48
77 72 70 72 68 62 63 65 66 61 56 51 47 44 42 39 36 35 30 23 26 27 28 25 20 21 22 25 29 32 33 32 28 27 28 29 32 35 38 42 45 47 48 49 49 50 52 53 51 50 49 49 50 49
74 70 68 68 62 63 62 62 62 60 58 51 46 42 41 41 39 32 29 28 26 24 19 19 20 21 24 27 31 33 33 32 30 30 30 32 34 38 42 45 47 49 50 52 52 54 56 56 54 53 52 52 53 51
70 71 67 63 64 65 64 62 61 58 54 51 46 44 41 37 29 31 29 28 24 21 20 20 20 22 26 29 32 33 33 30 30 30 32 34 38 43 46 49 50 52 53 55 57 59 59 58 57 56 56 55 51 45
68 70 69 66 67 67 63 59 59 56 52 48 44 41 39 32 32 31 28 24 20 20 19 19 22 25 29 31 31 31 30 30 31 33 36 40 44 48 51 54 55 56 57 59 61 62 62 61 60 59 57 51 45 39
69 68 66 64 62 61 59 55 56 55 50 47 43 37 34 33 31 27 23 20 20 19 18 21 25 29 31 31 31 31 32 33 36 38 42 45 48 52 55 57 59 60 62 64 66 66 65 64 62 58 52 46 39 35
61 59 59 59 58 56 53 55 55 52 49 45 40 36 33 30 26 21 20 18 17 17 19 24 28 30 31 31 31 32 33 36 38 42 46 49 54 57 58 59 61 63 66 69 69 68 68 65 60 54 46 40 37 36
50 49 49 53 54 52 52 54 52 50 45 39 33 31 28 25 19 18 17 16 16 19 24 26 27 28 27 28 30 33 36 40 43 47 51 54 57 59 60 62 65 68 70 71 72 73 68 60 52 47 44 42 44 45
46 46 48 49 50 51 52 51 50 45 36 29 24 21 19 18 17 15 15 17 20 24 25 26 26 27 28 30 33 37 42 45 48 51 55 57 59 61 64 68 71 72 73 75 76 68 56 48 43 39 36 35 34 34
46 46 46 47 48 49 47 44 41 37 30 23 19 18 18 16 15 16 19 22 23 24 24 25 26 29 32 35 40 43 46 48 51 54 55 57 61 65 68 71 73 77 78 72 63 56 53 51 49 47 45 42 40 38
33 37 42 39 33 31 32 33 26 22 20 19 19 18 17 17 19 21 22 23 23 24 26 29 31 34 38 41 44 46 48 50 52 54 57 62 65 68 71 76 77 72 66 63 62 59 56 54 52 49 47 45 44 43
21 19 22 23 22 21 19 20 20 20 21 21 19 19 19 20 21 22 23 24 26 28 30 33 36 39 41 43 45 46 47 50 53 57 61 64 68 74 74 68 65 66 67 66 65 62 61 59 56 54 51 48 45 42
23 22 24 25 25 24 20 21 19 18 19 21 21 22 22 22 22 24 26 27 30 32 34 36 39 40 41 42 43 46 50 53 57 60 65 69 68 62 59 58 56 57 58 57 54 47 43 41 38 36 34 32 34 34
Wind_Direction
338 337 186 181 175 168 163 151 146 153 156 168 176 178 182 191 191 174 166 164 169 173 178 174 170 172 169 161 142 112 87 73 68 66 59 59 60 55 55 53 51 49 46 322 275 270 264 265 264 268 264 265 267 266
336 312 181 178 176 174 158 153 154 164 160 169 174 174 183 195 182 173 172 165 171 175 179 178 174 176 174 174 160 141 101 77 61 56 55 47 52 53 51 50 48 51 46 42 34 12 291 273 267 268 270 271 271 271
331 195 180 181 181 177 173 159 165 176 174 175 172 174 177 193 186 179 173 168 171 175 182 181 178 180 178 179 180 162 140 66 48 42 47 41 40 39 44 45 40 39 38 42 38 37 26 348 295 277 268 268 271 272
321 190 182 186 181 183 172 166 169 162 174 183 188 180 182 196 199 184 184 175 181 176 184 183 183 184 186 185 186 196 206 265 360 12 26 30 29 24 31 30 29 28 25 28 31 30 26 19 9 335 287 276 273 273
300 190 185 182 181 175 168 164 164 161 169 181 190 178 176 201 195 188 184 178 180 180 180 187 186 186 187 188 191 198 219 243 282 330 345 3 13 10 12 15 17 16 12 13 15 12 11 8 0 349 328 302 289 282
273 190 181 185 180 173 158 159 158 160 170 191 190 177 187 201 194 190 175 178 179 179 186 186 184 186 189 190 198 207 224 240 271 297 313 330 349 352 353 355 359 359 3 1 2 360 355 352 346 338 329 322 315 304
224 184 188 190 186 174 165 162 160 165 179 189 189 175 198 193 193 182 175 177 180 184 187 189 186 188 189 193 201 212 229 241 264 284 293 311 326 329 331 336 338 341 346 347 348 343 341 337 332 328 325 323 320 319
208 184 192 194 187 182 174 170 175 184 175 170 176 186 198 201 195 182 177 178 181 187 190 195 192 191 195 200 210 220 231 248 263 281 293 301 309 311 317 323 323 327 331 333 332 331 331 326 321 320 317 315 320 324
202 183 192 194 188 184 175 173 182 177 173 172 188 186 192 195 189 180 178 179 186 188 191 192 193 196 197 206 216 228 244 257 270 285 291 299 300 305 313 319 322 323 321 323 325 324 323 321 315 312 309 311 315 321
201 188 194 199 193 184 176 176 179 177 177 177 167 165 186 195 185 180 183 182 183 187 189 191 193 197 205 217 227 237 247 261 277 284 291 296 302 305 307 310 317 319 319 319 320 318 316 316 315 313 311 313 316 320
199 191 193 196 195 187 178 179 182 179 181 178 180 185 201 202 190 184 185 182 184 190 193 198 203 212 220 225 236 243 253 265 274 282 287 292 297 303 306 309 314 317 317 317 317 316 316 315 314 314 313 314 315 318
197 190 191 196 193 178 181 188 181 176 174 177 181 193 199 201 202 186 181 181 179 187 194 200 205 212 216 228 241 259 270 272 275 279 284 287 297 308 308 308 311 313 314 316 316 315 315 316 312 311 312 312 313 316
194 188 190 192 192 192 192 185 185 183 179 186 189 191 195 201 204 199 185 180 175 180 189 193 199 210 227 241 254 267 276 281 276 283 283 294 307 307 307 310 311 313 314 314 314 314 314 312 311 310 311 310 312 314
195 187 190 193 194 193 188 191 189 183 185 193 195 194 203 200 200 199 193 182 185 194 201 206 209 221 230 240 253 272 287 286 284 284 289 299 302 306 309 311 310 311 311 311 311 311 311 310 310 310 311 311 311 313
191 185 188 191 192 178 186 186 183 183 189 196 201 198 198 204 196 194 194 188 194 199 204 213 216 216 232 249 261 276 286 295 290 288 292 293 298 305 314 311 308 306 307 309 309 310 310 310 311 311 311 311 311 312
189 184 187 190 196 187 184 183 181 185 191 198 199 198 197 196 200 195 194 194 195 200 207 211 209 223 226 246 264 282 292 294 296 297 295 296 302 314 312 308 307 307 308 309 309 310 310 311 312 312 312 311 311 311
189 186 190 194 197 193 184 185 192 191 192 189 191 191 185 192 191 192 194 195 196 202 209 200 203 217 240 261 278 287 289 291 294 292 295 303 310 311 307 306 307 307 308 308 308 310 311 313 313 312 310 310 311 312
186 187 187 192 181 179 185 196 194 191 188 187 191 185 181 188 196 200 199 199 203 209 209 214 228 237 250 261 268 275 283 289 289 294 300 303 308 307 306 309 311 310 308 308 308 309 312 313 312 311 310 312 312 314
184 185 190 193 193 190 203 200 191 188 190 188 193 191 185 191 195 196 197 201 206 209 214 219 227 235 247 258 268 278 282 284 290 295 299 303 305 306 309 312 311 309 309 309 309 310 312 312 311 311 311 312 312 316
178 183 192 195 197 200 194 195 191 192 192 192 197 194 194 194 200 204 206 210 210 211 210 218 233 240 254 261 268 272 279 286 290 295 299 301 304 308 308 309 309 308 307 307 309 311 311 310 311 311 311 313 315 317
171 177 187 197 197 201 198 194 196 196 193 194 198 199 195 196 204 206 211 214 212 213 220 230 245 255 250 254 263 273 279 286 292 295 299 303 306 307 309 309 308 308 308 309 311 312 312 311 310 310 312 313 314 316
166 171 181 192 195 195 197 195 197 199 196 197 199 202 201 202 207 211 211 217 223 226 229 237 242 243 253 261 267 273 280 287 292 296 300 302 305 308 309 308 308 309 310 311 312 310 310 310 310 311 312 313 315 314
171 174 183 193 198 198 196 195 198 197 197 200 204 205 207 209 212 212 215 221 224 229 236 238 241 250 257 262 268 274 280 286 294 299 301 304 306 307 307 309 309 311 311 311 311 310 309 310 311 312 313 315 314 313
171 176 182 188 197 200 194 195 196 194 197 203 207 209 210 211 205 213 219 226 231 233 235 237 245 252 258 264 269 275 283 291 296 300 303 306 307 309 310 311 312 312 311 311 311 310 310 310 311 312 313 312 311 306
173 180 185 190 196 196 195 194 194 197 202 205 210 212 210 207 214 220 224 230 229 223 228 238 245 251 257 265 272 280 288 296 301 303 306 308 308 310 311 312 312 311 310 310 309 309 309 310 312 312 311 309 303 298
178 183 189 192 193 194 192 197 200 203 205 210 211 208 210 213 219 225 230 227 219 223 235 243 248 254 263 270 279 289 296 299 302 305 305 307 309 310 311 311 310 309 308 308 309 309 310 310 311 312 309 303 296 291
184 189 192 192 193 194 198 202 203 205 207 209 211 213 218 223 226 225 220 220 225 236 241 245 251 261 272 283 293 296 298 300 302 302 303 305 306 307 308 307 307 307 307 307 308 308 309 311 312 310 304 297 291 287
190 193 199 198 200 199 201 204 205 206 209 215 219 219 220 224 223 216 216 219 228 236 244 254 265 277 287 292 294 296 299 299 301 302 303 303 305 306 306 306 305 305 306 306 307 308 311 310 306 301 298 294 288 287
191 195 200 205 206 207 208 207 209 213 213 212 213 216 217 211 211 213 218 227 236 245 256 269 281 286 288 291 294 296 298 301 302 302 304 305 305 305 305 305 304 304 305 306 308 310 308 306 304 303 301 299 295 291
195 198 201 206 210 213 215 217 218 216 216 216 213 209 208 210 214 222 229 238 248 260 272 279 282 285 287 291 295 299 300 301 302 303 304 304 304 304 304 304 305 306 308 309 308 306 305 303 301 299 297 294 289 286
194 202 205 206 210 214 219 221 218 212 207 208 206 207 214 220 225 232 241 250 263 271 274 280 285 288 292 295 298 299 300 301 302 303 304 304 304 303 304 305 308 310 308 306 305 304 302 301 299 297 295 293 288 282
182 186 190 199 201 193 185 186 185 190 197 201 207 214 222 230 239 248 255 262 267 274 279 285 289 292 295 297 298 300 302 303 303 303 303 303 305 305 309 312 311 310 308 307 305 303 302 300 298 294 291 288 287 283
178 178 175 179 184 189 192 196 195 200 206 212 220 227 235 242 249 256 262 267 273 279 284 288 291 294 296 298 301 302 302 302 302 303 305 306 310 313 314 316 317 317 314 311 309 309 309 310 309 305 297 288 282 281